Location: Spring Creek
(38.2870°N, 100.2160°W)
Time: 03:46:05
(UTC+00:00)

ARGOS Delta rocket - Pass Details

Date: 08 May 2021
Orbit: 636 x 836 km, 96.5° (Epoch: 22 June)

Event Time Altitude Azimuth Distance (km) Brightness Sun altitude
Rises 08:28:04 0° 15° (NNE) 2,993 8.2 -28.7°
Reaches altitude 10° 08:30:18 10° 20° (NNE) 2,098 7.2 -28.5°
Enters shadow 08:34:26 53° 79° (E) 842 4.3 -28.1°
